DELTA 1 DEB, 21469

Orbit data source: Space-Track

DELTA 1 DEB, 21469 is space debris in SSO originally from a launch on Thu, 12 Jun 1975 UTC launched from the Air Force Western Test Range (AFWTR). Debris objects in space refer to the collection of defunct objects orbiting the Earth. Examples of debris include non-operational satellites, rocket bodies, and fragments generated from explosions, collisions, or faulty payload assembly.

Loading next visibility...
Identifier
21469, 1975-052FD
Orbit
SSO
Country
Flag of USUS
Related business
Manufacturer
Unknown
Mission
Spacecraft
Bus & Motor
Unknown
Mass
Unknown
Launch date (UTC)
1975-06-12 (51 years ago)
Launch vehicle
Unknown
Launch site
Air Force Western Test Range (AFWTR)
Object type
Payload
Rocket body
Debris
Shape & HBR
Unknown shape, 0.1 m
Radar Cross Section
Medium (>0.1 m² and <1 m²)

Expand to show TLE details & history
Last TLE update: 2 days ago

TLE from 2 days ago
0 DELTA 1 DEB
1 21469U 75052FD  26171.17545330 -.00000199  00000-0 -57485-3 0  9999
2 21469  99.6849  62.0500 0365854 313.2388 202.2052 12.75234351631591
Epoch: 2026-06-20T04:12Z
TLE epoch observation values (Epoch: 2026-06-20T04:12:39.165Z)
Latitude
25.70528°
Longitude
-84.81728°
Altitude
1,627.192 km
Speed
6.938 km/s
True Right ascension
16h 26m 57s
True Declination
25° 35' 09"
Sunlit
Object was in daylight at epoch
Visualization orbit readout
Latitude
Unknown
Longitude
Unknown
Altitude
Unknown
Speed
Unknown
Apparent Right ascension
Unknown
Apparent Declination
Unknown
Sunlit
N/A
Visualization observer readout
Local Sidereal Time
14:37:45
Azimuth
Unknown
Elevation
Unknown
Doppler factor
Unknown
Orbital elements
Apogee altitude
1,641.12 km
Perigee altitude
1,075.054 km
Semi-major axis
7,736.224 km
Eccentricity
0.03659
Inclination
99.6849°
RAAN
62.05°
Arg. of periapsis
313.2388°
True anomaly
200.68543°
Mean anomaly
202.2052°
Eccentric anomaly
201.43902°
Mean motion
3.1897 °/min
Orbital period
112.86 mins
BSTAR
-0.00057485
Loading maneuver chart data...
Computing Atmospheric mass density...
Loading historical data...
Loading historical data...
Loading historical data...
Loading historical data...
Loading historical data...
Loading historical data...
Loading historical data...

Documentation

Showing up to 5 results
|